Hourly Data Report for October 30, 2014

All times are specified in Local Standard Time (LST). Add 1 hour to adjust for Daylight Saving Time where and when it is observed.

HALL BEACH A
NUNAVUT

68°46'33.000" N
81°14'33.000" W
9.10 m
2402354
71293
YUX

Download Data

Hourly Data (October 2014)
Hourly Data Report for October 30, 2014
Temp Definition
°C
Dew Point Temp Definition
°C
Rel Hum Definition
%
Wind Dir Definition
10's deg

Wind Spd Definition
km/h
Visibility Definition
km
Stn Press Definition
kPa
Hmdx Definition


Wind Chill Definition


Weather Definition


TIME
00:00 Legend Double Dagger -16.8 -18.2 89 30 17 16.1 101.27   -26 LegendNANA
01:00 Legend Double Dagger -15.2 -16.6 89 30 15 16.1 101.30   -23 LegendNANA
02:00 Legend Double Dagger -13.2 -14.5 90 31 18 16.1 101.32   -21 Snow
03:00 Legend Double Dagger -12.1 -13.4 90 31 21 16.1 101.36   -21 Snow
04:00 Legend Double Dagger -11.3 -12.8 89 32 22 16.1 101.38   -20 Snow
05:00 Legend Double Dagger -11.4 -13.0 88 31 21 16.1 101.41   -20 Snow
06:00 Legend Double Dagger -11.5 -13.0 89 32 37 4.8 101.39   -22 Snow
07:00 Legend Double Dagger -11.6 -13.4 87 32 30 16.1 101.47   -22 Snow
08:00 Legend Double Dagger -12.0 -13.7 87 32 28 16.1 101.50   -22 LegendNANA
09:00 Legend Double Dagger -12.0 -14.0 85 32 30 16.1 101.49   -22 LegendNANA
10:00 Legend Double Dagger -12.3 -14.2 86 32 26 16.1 101.49   -22 LegendNANA
11:00 Legend Double Dagger -13.3 -15.2 86 31 26 16.1 101.49   -23 LegendNANA
12:00 Legend Double Dagger -13.6 -15.5 86 32 32 16.1 101.51   -25 LegendNANA
13:00 Legend Double Dagger -13.5 -15.5 85 32 26 16.1 101.54   -23 LegendNANA
14:00 Legend Double Dagger -13.4 -15.3 86 31 28 16.1 101.55   -24 LegendNANA
15:00 Legend Double Dagger -13.2 -15.2 85 32 26 16.1 101.58   -23 Snow
16:00 Legend Double Dagger -13.1 -14.8 87 32 22 16.1 101.58   -22 Snow
17:00 Legend Double Dagger -12.2 -14.0 87 33 21 16.1 101.60   -21 Snow
18:00 Legend Double Dagger -11.4 -13.0 88 36 21 16.1 101.60   -20 Snow
19:00 Legend Double Dagger -10.7 -12.5 87 1 26 16.1 101.59   -20 Snow
20:00 Legend Double Dagger -10.8 -12.7 86 35 28 16.1 101.60   -20 Snow
21:00 Legend Double Dagger -11.7 -13.0 90 35 35 3.2 101.60   -22 Snow
22:00 Legend Double Dagger -12.2 -13.5 90 35 35 2.0 101.60   -23 Snow
23:00 Legend Double Dagger -12.3 -13.8 89 35 32 8.1 101.57   -23 Snow

Notes on Data Quality.

Legend

  • E = Estimated
  • M = Missing
  • NA = Not Available
  • ‡ = Partner data that is not subject to review by the National Climate Archives
Date modified: